[[{"header":{"parameterUnit":"m.s-1","parameterCategory":1,"la1":30.2991,"la2":30.254,"lo1":-89.0895,"lo2":-89.0444,"dy":0.0017,"dx":0.0017,"nx":28,"ny":28,"refTime":"2025-03-20T03:00:00:Z","depth":0,"parameterNumber":2,"parameterNumberName":"U-component_of_WINDS"},"data":[0,0,0,0,0,0,0,0,0,0,0,0,0,0,0,0,0,0,0,0,0,0,0,0,0,0,0,0,0,0,0,0,0,0,0,0,0,0,0,0,0,0,0,0,0,0,0,0,0,0,0,0,0,0,0,0,0,0,4.1134,4.1134,0,4.1193,4.1194,4.1195,4.1139,4.1137,4.1134,4.1132,4.1192,4.1195,4.1199,0,0,0,0,0,0,0,0,0,0,0,0,0,4.0972,4.0975,4.1134,4.1134,4.1135,4.1193,4.1194,4.1195,4.1139,4.1137,4.1134,4.1131,4.1191,4.1195,4.1199,0,0,0,0,0,0,0,0,0,0,0,0,0,4.1038,4.0976,4.1134,4.1115,4.1113,4.1193,4.1194,4.1195,4.114,4.1137,4.1133,4.113,4.1189,4.1194,4.12,4.1301,0,0,4.1217,4.1219,0,0,0,0,0,0,0,0,4.1034,4.1044,4.1117,4.1116,4.1115,4.1155,4.1159,4.1231,4.1141,4.113,4.1132,4.1128,4.1182,4.1188,4.1207,4.1304,4.1306,4.1217,4.1221,4.1223,4.1224,0,0,0,0,0,0,0,4.1029,4.1041,4.1157,4.1118,4.1117,4.1103,4.1109,4.1172,4.1174,4.113,4.1127,4.1135,4.1181,4.1201,4.1208,4.1307,4.1217,4.1222,4.1225,4.1227,4.1492,4.1496,0,0,0,0,0,0,4.1027,4.1037,4.1155,4.1159,4.1065,4.1109,4.1115,4.1146,4.1173,4.1174,4.1137,4.1132,4.1194,4.1201,4.1209,4.1331,4.1223,4.1228,4.1231,4.1488,4.1493,4.1497,0,0,0,0,0,0,4.1024,4.1038,4.1153,4.1097,4.1111,4.1115,4.115,4.1149,4.1169,4.1178,4.1178,4.1158,4.1191,4.1202,4.1279,4.1332,4.123,4.1236,4.1484,4.149,4.1495,4.1573,0,0,0,0,0,0,4.1019,4.1037,4.1076,4.1099,4.1114,4.1222,4.1153,4.1152,4.1179,4.1172,4.1198,4.1199,4.119,4.1271,4.1285,4.1338,4.124,4.1479,4.1487,4.1493,4.1566,4.1581,4.1593,0,0,0,0,0,4.1014,4.1094,4.1078,4.1092,4.1162,4.1225,4.1234,4.1222,4.1183,4.1222,4.1228,4.1198,4.1324,4.128,4.1294,4.135,4.1476,4.1485,4.1493,4.156,4.1578,4.1593,0,0,0,0,0,0,4.1076,4.1097,4.1079,4.1169,4.1196,4.1215,4.1264,4.1242,4.1279,4.1271,4.1255,4.1261,4.1344,4.1354,4.1304,4.145,4.1394,4.1405,4.144,4.1457,4.147,4.1466,4.1244,0,0,0,0,0,4.1101,4.1151,4.1166,4.1244,4.1259,4.1259,4.1286,4.1275,4.1302,4.1313,4.1325,4.1352,4.1397,4.1428,4.147,4.1568,4.1573,4.1613,4.1627,4.1638,4.1648,4.1702,4.172,4.1525,4.1525,4.1524,0,0,4.1151,4.1169,4.1201,4.1257,4.1277,4.1329,4.1269,4.1326,4.1364,4.1321,4.1395,4.1406,4.1434,4.1523,4.1562,4.1534,4.1704,4.1649,4.1658,4.1662,4.1712,4.1731,4.1747,4.153,4.1529,4.1528,0,0,4.127,4.1289,4.1357,4.1378,4.1409,4.1409,4.1425,4.1449,4.1454,4.1529,4.1498,4.1544,4.1623,4.1645,4.1667,4.1797,4.1771,4.1812,4.1883,4.1936,4.1951,4.1965,4.2012,4.2029,4.1822,4.1822,4.1822,0,4.1329,4.1407,4.1394,4.1454,4.148,4.1445,4.1514,4.1535,4.1578,4.1597,4.1565,4.1665,4.1682,4.1776,4.1808,4.1827,4.1845,4.1808,4.195,4.1964,4.1976,4.2021,4.2039,4.1827,4.1826,4.1826,4.1825,0,4.1478,4.1532,4.1584,4.1627,4.1659,4.1723,4.1721,4.1755,4.1742,4.1746,4.1823,4.1843,4.1889,4.1911,4.1898,4.2003,4.1985,4.1953,4.1896,4.2,4.2042,4.2059,4.1834,4.1832,4.1831,4.1829,0,0,4.1636,4.1674,4.1693,4.1713,4.1746,4.1787,4.1851,4.1897,4.1927,4.1958,4.2011,4.2081,4.2051,4.2076,4.2066,4.2112,4.2215,4.2073,4.2074,4.2099,4.2333,4.2358,4.2378,4.2198,4.2202,4.2204,4.2331,0,4.1756,4.1867,4.1859,4.1963,4.2013,4.1982,4.2037,4.2063,4.2069,4.2113,4.2119,4.2169,4.2126,4.2141,4.2185,4.2193,4.2262,4.2184,4.2247,4.225,4.2241,4.24,4.2425,4.2544,4.2347,4.235,4.2352,0,4.1911,4.195,4.2059,4.2086,4.2107,4.2157,4.22,4.2242,4.2272,4.2273,4.2302,4.2285,4.2349,4.2292,4.2381,4.2328,4.2354,4.2362,4.2366,4.2371,4.2307,4.2409,4.2581,4.2599,4.2378,4.2376,4.2374,0,4.2016,4.2095,4.2171,4.219,4.2222,4.2258,4.2274,4.23,4.2329,4.2367,4.2386,4.2431,4.2455,4.249,4.2486,4.2444,4.2577,4.2519,4.258,4.258,4.2608,4.2606,4.2787,4.2626,4.2625,4.2625,4.2624,0,4.2151,4.222,4.2219,4.2266,4.2342,4.2333,4.2408,4.2419,4.2444,4.2492,4.2468,4.2514,4.2506,4.2552,4.2549,4.2624,4.2635,4.2638,4.2636,4.264,4.264,4.2656,4.2648,4.263,4.2629,4.2628,4.2627,0,4.2281,4.2283,4.2364,4.239,4.2398,4.2453,4.2474,4.2519,4.2524,4.2586,4.26,4.2607,4.2661,4.2661,4.2721,4.2719,4.2811,4.28,4.2801,4.2799,4.286,4.2854,4.3057,4.3084,4.2905,4.2907,4.2908,0,4.2367,4.2419,4.2451,4.2482,4.25,4.255,4.2581,4.2574,4.2607,4.2646,4.2686,4.2737,4.2778,4.2865,4.2876,4.2923,4.2913,4.2981,4.2919,4.2922,4.2914,4.2911,4.2917,4.2993,4.2995,4.2996,4.2997,0,4.2519,4.2518,4.2563,4.261,4.2647,4.2682,4.2715,4.2742,4.2739,4.2777,4.2832,4.2864,4.2928,4.2979,4.3025,4.3041,4.3019,4.3017,4.3034,4.3038,4.3037,4.3039,4.2834,4.3012,4.3011,4.301,4.3009,4.3008,4.2629,4.2675,4.2705,4.2756,4.2781,4.2813,4.2856,4.2868,4.2914,4.2965,4.2958,4.302,4.305,4.3109,4.3129,4.3178,4.3154,4.3178,4.3184,4.319,4.3197,4.303,4.3186,4.3185,4.3185,4.3185,4.3184,0,4.2781,4.2799,4.2847,4.2894,4.2935,4.2913,4.2949,4.2984,4.3039,4.3069,4.311,4.3175,4.3225,4.3241,4.329,4.3326,4.3318,4.3339,4.3336,4.3341,4.3215,4.3196,4.3345,4.3345,4.3345,4.3345,4.3345,4.3345,4.2864,4.2941,4.2944,4.3033,4.305,4.3111,4.3134,4.3163,4.3188,4.3261,4.3303,4.3313,4.3338,4.3389,4.3435,4.3439,4.3458,4.3484,4.3483,4.3365,4.3349,4.3334,4.3316,4.3488,4.3488,4.3605,4.3606,4.3606]},{"header":{"parameterUnit":"m.s-1","parameterCategory":1,"la1":30.2991,"la2":30.254,"lo1":-89.0895,"lo2":-89.0444,"dy":0.0017,"dx":0.0017,"nx":28,"ny":28,"refTime":"2025-03-20T03:00:00:Z","depth":0,"parameterNumber":3,"parameterNumberName":"V-component_of_WINDS"},"data":[0,0,0,0,0,0,0,0,0,0,0,0,0,0,0,0,0,0,0,0,0,0,0,0,0,0,0,0,0,0,0,0,0,0,0,0,0,0,0,0,0,0,0,0,0,0,0,0,0,0,0,0,0,0,0,0,0,0,-7.0741,-7.0743,0,-7.0921,-7.0923,-7.0925,-7.0886,-7.0883,-7.0879,-7.0876,-7.1057,-7.1064,-7.1072,0,0,0,0,0,0,0,0,0,0,0,0,0,-7.0362,-7.0369,-7.0741,-7.0743,-7.0746,-7.092,-7.0923,-7.0925,-7.0887,-7.0883,-7.0879,-7.0875,-7.1054,-7.1063,-7.1073,0,0,0,0,0,0,0,0,0,0,0,0,0,-7.0532,-7.0371,-7.0741,-7.0747,-7.075,-7.092,-7.0923,-7.0926,-7.0888,-7.0882,-7.0877,-7.0873,-7.1051,-7.1062,-7.1074,-7.1248,0,0,-7.111,-7.1115,0,0,0,0,0,0,0,0,-7.0523,-7.0546,-7.0744,-7.0747,-7.075,-7.0876,-7.0855,-7.1034,-7.0889,-7.0835,-7.0876,-7.087,-7.1,-7.1016,-7.1061,-7.1256,-7.1264,-7.1111,-7.1119,-7.1124,-7.1127,0,0,0,0,0,0,0,-7.0511,-7.0538,-7.0812,-7.0747,-7.0751,-7.0741,-7.0759,-7.0889,-7.0943,-7.0839,-7.0837,-7.0859,-7.1001,-7.1049,-7.1064,-7.1266,-7.1111,-7.1122,-7.1129,-7.1134,-7.1614,-7.1619,0,0,0,0,0,0,-7.0497,-7.0529,-7.0806,-7.0817,-7.0622,-7.0751,-7.0772,-7.0841,-7.0942,-7.0953,-7.0863,-7.0857,-7.1031,-7.1051,-7.1071,-7.1281,-7.1124,-7.1135,-7.1142,-7.1608,-7.1615,-7.1621,0,0,0,0,0,0,-7.0489,-7.0522,-7.0799,-7.0673,-7.0707,-7.0763,-7.084,-7.0847,-7.0895,-7.096,-7.0969,-7.0903,-7.1028,-7.1054,-7.1204,-7.1287,-7.114,-7.1151,-7.1602,-7.161,-7.1618,-7.1703,0,0,0,0,0,0,-7.0478,-7.0519,-7.0586,-7.0674,-7.0714,-7.0931,-7.0845,-7.0854,-7.0916,-7.0909,-7.0999,-7.101,-7.1026,-7.1187,-7.1216,-7.13,-7.116,-7.1594,-7.1606,-7.1616,-7.1693,-7.1713,-7.173,0,0,0,0,0,-7.0465,-7.0602,-7.059,-7.0624,-7.0799,-7.0936,-7.0958,-7.0976,-7.0923,-7.099,-7.1032,-7.1007,-7.1273,-7.1203,-7.1235,-7.1324,-7.1589,-7.1602,-7.1615,-7.1684,-7.1709,-7.173,0,0,0,0,0,0,-7.052,-7.0614,-7.0601,-7.0771,-7.0846,-7.0929,-7.1014,-7.1001,-7.1091,-7.1081,-7.1097,-7.1118,-7.1272,-7.1313,-7.1233,-7.1498,-7.1424,-7.1443,-7.1465,-7.1489,-7.1508,-7.1494,-7.117,0,0,0,0,0,-7.0553,-7.0657,-7.0732,-7.0875,-7.0913,-7.0958,-7.1018,-7.1025,-7.1102,-7.1133,-7.1186,-7.1261,-7.1362,-7.1428,-7.1524,-7.1699,-7.1718,-7.1776,-7.1795,-7.181,-7.1827,-7.1923,-7.1949,-7.1663,-7.1663,-7.1663,0,0,-7.062,-7.0684,-7.0748,-7.0888,-7.0946,-7.1053,-7.0984,-7.11,-7.1179,-7.115,-7.1296,-7.1338,-7.1423,-7.1586,-7.1661,-7.1625,-7.191,-7.1826,-7.1838,-7.1846,-7.1938,-7.1965,-7.1989,-7.1672,-7.167,-7.1669,0,0,-7.0797,-7.0856,-7.0982,-7.1043,-7.1133,-7.1162,-7.1193,-7.1278,-7.1305,-7.1452,-7.1433,-7.1527,-7.17,-7.1762,-7.1816,-7.2018,-7.1998,-7.2049,-7.2147,-7.224,-7.2263,-7.2283,-7.2355,-7.2381,-7.2066,-7.2066,-7.2066,0,-7.0869,-7.103,-7.1048,-7.1166,-7.1228,-7.1209,-7.1336,-7.1394,-7.1511,-7.1554,-7.1513,-7.173,-7.1786,-7.1964,-7.2014,-7.2058,-7.2093,-7.2039,-7.2258,-7.2279,-7.2298,-7.2367,-7.2394,-7.2072,-7.2071,-7.207,-7.207,0,-7.1114,-7.1226,-7.1317,-7.1432,-7.1504,-7.1626,-7.1662,-7.1733,-7.1734,-7.1767,-7.1917,-7.1984,-7.2094,-7.2136,-7.2138,-7.2315,-7.229,-7.2254,-7.2179,-7.233,-7.2395,-7.2422,-7.208,-7.2078,-7.2076,-7.2075,0,0,-7.133,-7.1455,-7.1488,-7.1541,-7.164,-7.1726,-7.1847,-7.1956,-7.2017,-7.2098,-7.22,-7.2348,-7.2315,-7.2377,-7.2385,-7.2467,-7.2624,-7.2421,-7.2423,-7.2456,-7.2823,-7.285,-7.2881,-7.2612,-7.2617,-7.2621,-7.2816,0,-7.1517,-7.1732,-7.1752,-7.1944,-7.2048,-7.2032,-7.2138,-7.221,-7.2245,-7.2337,-7.2374,-7.2479,-7.2428,-7.2465,-7.2545,-7.2588,-7.2698,-7.2574,-7.2706,-7.271,-7.2685,-7.2915,-7.2943,-7.3124,-7.2842,-7.2846,-7.2849,0,-7.1762,-7.1853,-7.2057,-7.2142,-7.2187,-7.2281,-7.2383,-7.2472,-7.2553,-7.2573,-7.2642,-7.2641,-7.2765,-7.2686,-7.2858,-7.2773,-7.2828,-7.2857,-7.2865,-7.2877,-7.2788,-7.2933,-7.3183,-7.321,-7.289,-7.2886,-7.2884,0,-7.19,-7.2073,-7.2217,-7.2262,-7.2366,-7.2433,-7.2479,-7.2556,-7.262,-7.2709,-7.2751,-7.2853,-7.2908,-7.2987,-7.3012,-7.2953,-7.3183,-7.3106,-7.3202,-7.3201,-7.325,-7.3247,-7.3512,-7.3286,-7.3286,-7.3285,-7.3285,0,-7.2106,-7.2231,-7.228,-7.2369,-7.2509,-7.2531,-7.2668,-7.271,-7.2779,-7.2875,-7.2867,-7.2957,-7.2986,-7.3081,-7.3101,-7.324,-7.3265,-7.3284,-7.3288,-7.3285,-7.3282,-7.332,-7.3308,-7.3293,-7.3291,-7.329,-7.3288,0,-7.2282,-7.2321,-7.2477,-7.2563,-7.2588,-7.2687,-7.276,-7.2845,-7.2879,-7.3001,-7.3031,-7.3083,-7.3195,-7.3228,-7.3362,-7.3376,-7.3539,-7.3531,-7.3512,-7.3512,-7.3605,-7.3596,-7.3904,-7.3946,-7.3693,-7.3695,-7.3697,0,-7.2411,-7.2507,-7.2604,-7.2669,-7.2718,-7.2822,-7.2888,-7.2914,-7.2983,-7.3084,-7.3157,-7.3268,-7.3358,-7.3537,-7.3586,-7.3689,-7.3683,-7.3784,-7.3699,-7.3693,-7.3685,-7.3679,-7.3689,-7.38,-7.3803,-7.3805,-7.3807,0,-7.2635,-7.265,-7.2746,-7.2851,-7.2931,-7.3013,-7.3093,-7.3146,-7.3183,-7.3261,-7.3376,-7.3446,-7.3584,-7.3694,-7.3798,-7.3844,-7.3832,-7.3834,-7.3861,-7.3859,-7.3844,-7.3853,-7.3555,-7.3826,-7.3824,-7.3823,-7.3822,-7.3821,-7.2792,-7.2877,-7.2959,-7.3067,-7.313,-7.3205,-7.329,-7.3335,-7.3432,-7.3547,-7.3556,-7.368,-7.376,-7.3899,-7.3951,-7.4048,-7.4018,-7.4058,-7.4068,-7.4078,-7.4086,-7.3829,-7.4067,-7.4067,-7.4066,-7.4066,-7.4065,0,-7.3016,-7.3068,-7.3168,-7.328,-7.3366,-7.3348,-7.3436,-7.3508,-7.3618,-7.3694,-7.3783,-7.3915,-7.4023,-7.4081,-7.4188,-7.4254,-7.4251,-7.4281,-7.4276,-7.4287,-7.4106,-7.4071,-7.4282,-7.4282,-7.4282,-7.4282,-7.4282,-7.4282,-7.3142,-7.3285,-7.331,-7.3484,-7.3536,-7.3659,-7.371,-7.3779,-7.384,-7.3989,-7.4079,-7.4117,-7.4186,-7.4298,-7.4395,-7.4409,-7.4449,-7.4482,-7.4493,-7.4322,-7.43,-7.4279,-7.4247,-7.4491,-7.4491,-7.4667,-7.4669,-7.467]}]]